Nashua, NH

9:33 AM EDT on October 23, 2019 (GMT -0400)
Boire

Weather History for KASH - August, 2019

Change the Weather History Date:

Sunday, August 18, 2019

  Actual Average Record
Temperature  
Mean Temperature 76 °F -  
Max Temperature 89 °F 80 °F 95 °F (2002)
Min Temperature 64 °F 57 °F 43 °F (1960)
Cooling Degree Days 11    
Growing Degree Days 26 (Base 50)    
Moisture  
Dew Point 69 °F    
Average Humidity 93    
Maximum Humidity 100    
Minimum Humidity 48    
Precipitation  
Precipitation 0.01 in - - ()
Sea Level Pressure  
Sea Level Pressure 30.00 in    
Wind  
Wind Speed 2 mph (SE)    
Max Wind Speed 10 mph    
Max Gust Speed 15 mph    
Visibility 7 miles    
Events Fog , Rain , Thunderstorm    
Averages and records for this station are not official NWS values.
T = Trace of Precipitation, MM = Missing Value Source: NWS Daily Summary

Daily Weather History Graph

Daily Weather History Graph

Search for Another Location

Airport or City:

Astronomy

Aug. 18, 2019 Rise Set
Actual Time 5:55 AM EDT 7:43 PM EDT
Civil Twilight 5:25 AM EDT 8:13 PM EDT
Nautical Twilight 4:48 AM EDT 8:50 PM EDT
Astronomical Twilight 4:08 AM EDT 9:30 PM EDT
Moon 9:33 PM EDT (8/18) 8:40 AM EDT (8/18)
Length of Visible Light 14h 48m
Length of Day
13h 48m
Waning Gibbous, 91% of the Moon is Illuminated
Aug 18
Waning Gibbous
Aug 23
Last Quarter
Aug 30
New
Sep 5
First Quarter
Sep 14
Full

Hourly Weather History & Observations

Time (EDT) Temp. Heat Index Dew Point Humidity Pressure Visibility Wind Dir Wind Speed Gust Speed Precip Events Conditions
12:56 AM 68.0 °F - 68.0 °F 100% 30.02 in 10.0 mi SSE 3.5 mph - N/A   Clear
1:56 AM 66.9 °F - 66.9 °F 100% 30.02 in 10.0 mi NW 4.6 mph - N/A   Scattered Clouds
2:56 AM 66.0 °F - 66.0 °F 100% 30.01 in 10.0 mi Calm Calm - N/A   Mostly Cloudy
3:37 AM 66.2 °F - 66.2 °F 100% 29.99 in 10.0 mi Calm Calm - N/A   Partly Cloudy
3:56 AM 66.0 °F - 66.0 °F 100% 30.00 in 10.0 mi Calm Calm - N/A   Partly Cloudy
4:24 AM 64.4 °F - 64.4 °F 100% 29.99 in 2.5 mi Calm Calm - N/A   Partly Cloudy
4:31 AM 64.4 °F - 64.4 °F 100% 29.99 in 7.0 mi Calm Calm - N/A   Partly Cloudy
4:49 AM 64.4 °F - 64.4 °F 100% 29.99 in 5.0 mi Calm Calm - N/A   Mostly Cloudy
4:56 AM 64.0 °F - 64.0 °F 100% 30.01 in 4.0 mi Calm Calm - N/A   Mostly Cloudy
5:08 AM 64.4 °F - 64.4 °F 100% 30.00 in 1.8 mi Calm Calm - N/A   Overcast
5:29 AM 64.4 °F - 64.4 °F 100% 30.00 in 3.0 mi Calm Calm - N/A   Overcast
5:36 AM 64.4 °F - 64.4 °F 100% 30.00 in 1.8 mi Calm Calm - N/A   Overcast
5:46 AM 64.4 °F - 64.4 °F 100% 30.00 in 3.0 mi Calm Calm - N/A   Overcast
5:56 AM 66.0 °F - 66.0 °F 100% 30.02 in 3.0 mi Calm Calm - 0.01 in   Overcast
6:01 AM 66.2 °F - 66.2 °F 100% 30.01 in 1.8 mi Calm Calm - N/A   Overcast
6:09 AM 66.2 °F - 66.2 °F 100% 30.01 in 0.8 mi Calm Calm - N/A   Overcast
6:19 AM 66.2 °F - 66.2 °F 100% 30.01 in 0.5 mi Calm Calm - N/A Fog Fog
6:43 AM 66.2 °F - 66.2 °F 100% 30.01 in 0.2 mi WNW 4.6 mph - N/A Fog Fog
6:56 AM 66.0 °F - 66.0 °F 100% 30.02 in 0.2 mi Calm Calm - N/A Fog Fog
7:27 AM 66.2 °F - 66.2 °F 100% 30.02 in 0.8 mi North 4.6 mph - N/A   Overcast
7:56 AM 66.9 °F - 66.9 °F 100% 30.05 in 0.8 mi Calm Calm - N/A   Overcast
7:58 AM 66.2 °F - 66.2 °F 100% 30.04 in 1.2 mi Calm Calm - N/A   Overcast
8:04 AM 66.2 °F - 66.2 °F 100% 30.04 in 3.0 mi Calm Calm - N/A   Overcast
8:56 AM 68.0 °F - 68.0 °F 100% 30.06 in 10.0 mi NNW 3.5 mph - N/A   Overcast
9:56 AM 70.0 °F - 69.1 °F 97% 30.06 in 10.0 mi NNW 4.6 mph - N/A   Overcast
10:56 AM 72.0 °F - 70.0 °F 93% 30.05 in 10.0 mi Variable 3.5 mph - N/A   Mostly Cloudy
11:33 AM 73.4 °F - 69.8 °F 88% 30.03 in 10.0 mi Calm Calm - N/A   Scattered Clouds
11:56 AM 77.0 °F - 71.1 °F 82% 30.04 in 10.0 mi Calm Calm - N/A   Scattered Clouds
12:56 PM 81.0 °F 85.2 °F 72.0 °F 74% 30.02 in 10.0 mi SE 6.9 mph - N/A   Scattered Clouds
1:56 PM 84.0 °F 89.6 °F 72.0 °F 67% 30.01 in 6.0 mi Variable 3.5 mph - N/A   Clear
2:56 PM 86.0 °F 93.0 °F 73.0 °F 65% 30.00 in 10.0 mi Variable 4.6 mph - N/A   Scattered Clouds
3:56 PM 88.0 °F 90.3 °F 66.0 °F 48% 29.99 in 10.0 mi West 8.1 mph - N/A   Scattered Clouds
4:56 PM 88.0 °F 91.4 °F 68.0 °F 51% 29.98 in 10.0 mi Variable 4.6 mph - N/A   Scattered Clouds
5:56 PM 87.1 °F 92.8 °F 71.1 °F 59% 29.98 in 10.0 mi Calm Calm - N/A   Scattered Clouds
6:56 PM 81.0 °F 86.2 °F 73.9 °F 79% 29.97 in 10.0 mi SE 10.4 mph 15.0 mph N/A   Mostly Cloudy
7:56 PM 79.0 °F - 73.9 °F 84% 29.97 in 10.0 mi SE 8.1 mph - N/A   Mostly Cloudy
8:56 PM 75.9 °F - 73.0 °F 91% 29.99 in 10.0 mi SE 5.8 mph - N/A   Overcast
9:56 PM 75.9 °F - 73.0 °F 91% 29.99 in 10.0 mi SE 4.6 mph - N/A   Mostly Cloudy
10:08 PM 75.2 °F - 73.4 °F 94% 29.97 in 10.0 mi Variable 3.5 mph - 0.00 in Rain , Thunderstorm Light Thunderstorms and Rain
10:27 PM 73.4 °F - 73.4 °F 100% 29.98 in 10.0 mi Variable 3.5 mph - 0.00 in Thunderstorm Thunderstorm
10:51 PM 73.4 °F - 73.4 °F 100% 29.97 in 10.0 mi Calm Calm - 0.00 in Thunderstorm Overcast
10:56 PM 73.9 °F - 73.9 °F 100% 29.98 in 10.0 mi Calm Calm - 0.00 in Thunderstorm Mostly Cloudy
11:12 PM 73.4 °F - 73.4 °F 100% 29.97 in 10.0 mi NW 4.6 mph - N/A   Mostly Cloudy
11:33 PM 73.4 °F - 73.4 °F 100% 29.97 in 10.0 mi Calm Calm - N/A   Overcast
11:51 PM 73.4 °F - 73.4 °F 100% 29.95 in 10.0 mi ESE 3.5 mph - N/A   Scattered Clouds
11:56 PM 73.9 °F - 73.9 °F 100% 29.96 in 10.0 mi SSE 3.5 mph - N/A   Partly Cloudy